Theta_e
310 310 310 309 308 306 309 314 311 322 322 309 310 307 310 304 309 311 310 311 310 308 308 306 305 305 308 312 310 305 310 307 300 301 308 307 305 301 301 296 295 298 297 297
309 309 309 309 308 307 306 307 311 324 321 306 308 312 310 310 308 308 309 307 310 311 308 304 307 308 311 311 309 309 312 305 297 300 304 307 304 303 303 303 303 297 293 295
309 309 309 309 308 307 308 308 306 314 316 314 311 312 309 307 310 309 311 310 311 309 307 310 307 308 309 310 310 312 314 307 301 296 299 303 300 302 302 302 300 297 297 299
308 309 309 308 307 306 309 313 308 312 307 310 312 313 311 308 306 310 310 309 309 308 306 306 306 308 308 309 306 307 310 302 304 304 305 303 301 299 299 298 299 296 297 298
306 308 309 308 307 306 312 309 306 308 306 308 309 307 308 308 309 309 307 306 309 309 307 308 306 308 308 306 309 308 312 302 303 300 304 303 299 301 300 299 299 298 299 298
304 307 309 307 307 307 312 315 314 309 304 305 304 304 307 308 311 311 311 311 309 308 309 314 314 314 314 312 309 309 308 305 303 297 302 300 296 300 301 301 301 301 296 304
304 305 308 306 307 307 308 311 311 305 300 303 303 305 308 309 309 308 311 312 311 314 318 316 314 312 311 310 310 312 308 306 305 298 300 290 302 306 303 300 302 304 303 303
303 304 305 308 308 307 307 311 310 306 301 304 304 304 305 309 310 308 310 313 318 319 313 307 304 304 306 307 309 309 311 307 302 298 295 299 301 303 301 299 299 305 304 305
304 304 305 306 309 307 307 310 317 309 302 302 306 304 306 304 305 307 310 316 319 316 309 305 298 296 300 299 303 309 308 309 303 299 293 289 302 306 308 306 295 307 307 305
303 303 304 306 308 308 306 308 320 310 303 306 307 304 303 308 308 305 311 312 311 315 305 300 298 297 303 297 298 300 301 302 299 298 295 298 306 307 308 293 299 308 307 307
303 303 304 305 307 308 306 306 315 309 304 306 309 310 306 307 309 305 313 309 309 307 302 301 301 300 302 301 302 303 300 298 297 299 296 292 310 307 300 309 312 310 308 308
303 303 303 304 306 308 307 303 311 313 305 305 310 311 312 311 311 308 314 313 313 310 306 305 305 302 303 302 297 305 301 304 306 305 304 313 313 312 316 315 310 309 310 309
303 303 303 304 305 306 306 303 306 307 303 303 304 304 312 315 313 316 307 314 318 318 321 311 307 303 305 299 300 302 306 311 306 307 310 312 312 315 314 312 311 312 312 309
303 303 303 303 305 306 307 303 306 305 304 298 303 313 311 314 315 313 316 314 320 322 316 309 305 303 308 302 304 303 307 309 307 305 308 310 311 313 313 312 313 311 310 308
302 303 303 303 304 306 306 305 305 307 301 295 301 309 313 314 313 312 313 316 314 312 308 305 303 307 307 306 305 302 308 307 305 302 310 312 310 316 313 311 310 310 308 306
302 303 303 302 303 305 303 297 306 308 308 298 295 308 308 311 312 311 310 311 311 310 308 306 308 313 307 301 299 307 308 310 313 308 313 313 314 318 314 312 311 310 308 307
302 302 302 302 302 304 297 296 301 305 307 299 295 296 306 311 311 310 309 313 308 308 307 306 306 308 307 303 300 307 309 310 311 312 314 311 313 312 313 312 312 310 309 308
302 302 302 302 302 302 298 303 304 306 300 302 295 296 302 309 304 303 309 305 307 308 306 308 305 307 306 300 306 306 309 311 311 313 315 312 313 313 312 312 310 307 305 305
301 302 302 301 299 296 299 308 306 306 300 293 297 293 292 309 305 306 306 308 301 307 303 304 306 303 300 304 306 307 309 309 310 312 311 312 310 310 310 309 307 305 305 304
301 300 295 292 298 308 308 305 299 298 296 294 292 300 296 306 304 302 302 304 300 297 301 306 302 300 310 312 310 311 311 312 312 309 307 309 308 308 308 307 307 307 306 304
298 294 293 307 307 305 300 293 293 291 288 293 295 297 296 306 297 298 305 299 300 295 299 300 298 299 307 309 310 312 313 313 313 313 312 312 310 308 308 308 307 307 306 303
300 297 303 303 299 295 291 291 293 290 289 297 296 296 298 304 308 302 303 298 300 293 304 298 294 303 310 309 309 311 313 313 312 313 311 311 311 311 309 308 307 307 306 305
301 298 293 293 291 286 285 285 288 289 295 298 299 297 298 303 304 297 296 293 294 304 297 296 299 308 310 311 311 311 313 313 313 312 312 311 310 310 309 307 307 308 305 305
292 289 283 286 286 288 290 291 292 297 298 299 299 298 297 301 298 297 291 298 298 294 290 294 302 310 310 311 311 312 311 312 311 311 311 310 308 307 307 307 308 306 304 304
289 290 283 287 291 294 295 296 297 302 302 299 299 300 301 298 295 297 295 293 288 295 294 301 310 314 314 312 313 313 312 312 311 311 310 309 307 306 306 308 308 306 305 304
292 291 288 292 292 293 295 295 297 301 302 304 303 297 295 293 296 292 290 291 291 296 303 308 313 313 315 315 315 314 313 312 312 311 310 308 307 306 307 307 306 305 304 304
289 289 293 293 293 292 293 298 297 303 298 296 298 292 291 297 293 291 295 293 299 305 305 305 311 315 315 316 315 314 314 313 313 311 309 308 308 308 307 304 305 306 305 305
Wind_Speed
21 22 23 24 26 33 12 6 5 8 6 7 9 11 15 3 7 2 10 8 13 8 9 6 5 10 7 8 2 2 5 4 7 16 7 1 7 10 9 7 9 10 10 5
21 22 23 23 23 20 10 8 12 6 6 9 9 14 4 5 8 13 8 10 8 9 8 4 9 11 7 6 3 5 7 3 8 7 12 7 5 2 3 6 5 9 9 3
22 21 23 23 23 20 9 7 6 6 7 11 13 12 6 9 10 11 8 8 12 8 8 11 4 2 6 6 9 6 5 4 9 10 14 7 7 7 4 4 3 9 11 3
22 21 22 23 26 25 6 6 3 5 5 2 10 8 11 12 7 9 11 9 12 8 7 11 11 6 11 5 5 2 3 8 11 13 17 8 10 12 11 10 9 10 11 10
21 22 20 23 27 34 6 8 7 9 13 12 11 6 11 14 13 10 6 10 12 11 11 11 9 7 3 4 9 6 6 6 11 12 12 15 9 12 11 11 9 11 10 5
20 21 20 20 24 24 7 10 11 7 10 11 9 11 13 13 14 9 5 6 11 15 7 9 10 8 5 7 2 8 8 6 7 9 14 8 7 8 7 10 1 3 6 8
18 19 21 19 18 16 8 11 9 7 10 12 13 13 10 11 5 7 10 8 9 6 5 8 4 1 2 4 7 4 6 6 6 8 9 10 1 2 3 7 3 2 2 2
18 18 19 19 16 16 10 10 9 8 11 13 17 11 7 9 11 10 11 3 6 6 3 3 4 6 8 13 12 9 6 8 1 3 6 10 10 6 2 1 7 3 4 6
17 17 18 18 17 16 10 10 7 6 8 9 17 13 11 7 10 10 11 6 3 2 5 7 11 10 10 3 9 5 5 7 3 4 4 4 9 8 5 4 6 10 9 3
16 17 17 17 18 16 11 8 10 8 11 15 15 9 8 11 13 10 6 9 3 4 6 9 10 11 13 10 16 9 8 8 9 7 4 7 7 9 3 3 3 9 5 5
15 16 16 16 17 15 9 9 7 7 9 17 20 18 11 10 8 9 5 9 8 7 9 10 9 9 8 6 5 8 4 7 8 9 10 10 12 7 3 7 6 5 3 7
14 15 15 16 16 16 10 7 8 8 9 14 20 18 18 17 14 7 7 7 7 7 7 8 5 7 6 4 6 3 8 5 3 1 2 5 7 5 9 7 6 5 7 7
14 14 15 15 15 16 10 8 7 9 10 13 15 17 20 18 15 10 5 0 6 3 5 5 3 2 6 5 5 7 4 5 3 1 5 6 8 7 5 3 7 8 10 7
14 14 14 15 15 15 11 8 6 5 8 8 10 8 13 14 10 14 12 10 9 8 6 5 5 4 3 6 7 3 2 6 6 8 8 7 9 11 7 6 10 9 8 6
14 13 14 13 14 15 10 9 7 6 5 6 10 18 16 11 9 12 13 8 8 7 6 5 7 8 6 6 6 10 5 8 7 5 4 9 5 13 12 11 10 9 8 7
14 14 13 12 13 13 7 3 2 5 2 5 6 3 15 15 11 12 12 10 8 8 8 7 9 4 3 6 7 12 11 5 5 3 4 3 4 14 14 12 11 10 8 9
13 12 12 12 12 9 5 4 2 7 2 4 6 6 10 14 12 9 8 10 9 8 9 10 10 5 4 8 9 10 5 1 6 2 9 8 8 11 11 11 11 8 9 10
11 12 12 13 13 13 9 11 14 4 2 6 6 10 4 11 9 10 10 10 10 10 10 10 11 5 6 8 11 15 9 9 8 8 8 8 9 11 11 12 11 11 10 13
10 11 13 8 7 8 9 14 15 3 1 4 6 10 11 2 11 10 9 8 9 7 11 11 10 10 9 9 12 12 13 10 10 12 9 11 12 12 13 13 12 11 12 12
8 7 5 5 6 18 14 6 6 4 4 4 5 10 11 6 4 6 9 6 9 11 11 9 12 10 11 12 9 9 10 12 12 12 12 13 12 13 13 12 11 10 12 13
5 5 5 3 6 5 5 6 7 5 4 5 6 14 12 6 2 4 5 4 9 11 7 12 11 11 12 13 14 11 10 12 12 13 11 11 12 13 13 11 10 8 14 14
1 7 10 1 5 5 5 6 5 5 6 8 10 13 14 3 2 5 2 4 5 10 10 10 7 11 14 15 18 15 12 14 14 14 14 13 12 13 12 10 9 9 13 13
6 5 3 3 3 7 7 9 6 5 8 8 9 9 11 7 4 1 3 5 8 3 8 8 8 11 11 12 14 15 14 14 14 14 13 12 10 11 11 10 9 13 13 12
4 3 4 6 6 8 8 10 9 7 10 5 9 7 9 5 5 4 6 5 4 4 1 9 9 9 12 11 11 15 16 15 15 12 12 12 10 10 10 10 11 12 12 11
4 4 6 9 6 11 9 8 4 7 6 6 4 7 3 4 4 5 4 4 2 8 8 4 9 12 11 12 13 14 14 14 13 12 11 11 11 10 10 11 13 11 11 11
4 6 7 9 10 11 4 5 8 7 9 3 3 3 4 4 3 5 8 5 6 4 1 5 10 14 9 12 13 14 14 14 13 12 12 11 11 11 11 13 10 11 10 10
5 6 7 7 10 6 10 14 6 9 3 3 3 5 5 4 5 5 5 8 7 4 7 9 4 12 14 12 12 13 13 13 13 12 12 11 11 11 12 12 8 8 8 7
Wind_Direction
340 340 342 344 348 341 342 299 272 120 186 210 231 236 244 310 317 173 248 280 296 293 270 275 240 67 63 45 36 218 55 345 309 306 308 157 295 290 305 305 304 303 311 41
343 341 343 344 350 4 321 298 297 145 207 237 246 227 218 248 250 244 232 241 249 280 279 299 279 101 98 85 353 47 352 220 272 296 300 100 303 17 19 282 311 288 292 293
344 342 342 342 344 347 318 277 275 177 198 260 293 301 218 233 196 272 293 269 250 223 249 250 263 180 90 84 70 36 353 285 267 274 290 314 254 283 248 241 283 284 291 337
345 342 341 343 341 337 293 244 332 21 289 320 290 265 301 302 215 191 251 245 265 241 239 260 219 187 135 134 116 170 254 257 265 274 271 284 287 283 290 284 271 269 285 314
342 345 343 346 344 333 229 302 350 353 304 296 298 268 261 274 274 279 210 225 261 240 243 239 257 297 125 230 158 206 184 274 269 269 296 278 241 277 281 272 287 294 299 284
342 342 344 349 352 341 322 8 337 298 298 288 253 255 255 239 269 257 244 301 258 259 254 78 56 36 30 0 331 168 220 247 275 276 290 295 285 296 302 281 237 324 303 64
339 339 342 347 352 355 319 307 318 294 289 275 268 250 270 279 278 305 312 237 285 75 83 94 119 11 320 261 249 257 284 208 259 272 297 283 52 80 313 302 302 148 230 86
339 335 336 340 340 340 318 306 294 300 287 285 291 288 282 289 276 251 264 287 55 316 210 213 203 225 232 243 235 174 248 285 233 248 294 296 249 155 193 218 282 192 202 119
330 334 330 332 334 334 321 308 330 288 292 247 349 320 315 281 263 243 220 103 66 322 270 215 245 254 236 236 179 121 237 236 182 240 210 273 105 129 134 95 270 82 94 94
323 329 328 328 333 325 319 288 313 286 281 279 278 293 321 319 304 286 265 120 178 224 228 248 250 241 253 240 203 171 192 208 225 211 242 257 147 132 126 233 104 102 75 78
315 322 325 322 327 325 326 303 307 309 288 285 303 318 297 300 302 311 341 170 215 187 229 243 251 263 273 283 262 153 206 192 213 223 234 242 131 142 252 100 102 105 92 83
308 314 321 320 325 331 321 289 340 326 284 288 311 292 292 289 302 328 309 236 285 224 206 229 250 236 270 253 246 229 212 215 212 69 189 83 114 93 104 133 141 119 118 98
298 308 315 317 317 321 316 302 307 309 273 269 255 256 249 234 242 242 277 198 346 359 348 302 231 286 269 246 261 259 185 215 205 191 150 163 151 106 131 171 136 115 110 124
299 299 306 312 312 322 304 287 291 284 295 281 271 275 247 221 213 214 224 266 304 293 276 262 279 238 290 272 298 260 16 123 233 242 209 159 185 156 168 117 107 120 124 134
291 292 296 306 311 317 293 267 251 243 281 315 305 320 283 214 211 232 225 220 251 274 234 247 251 269 271 271 270 272 217 192 205 228 251 171 202 159 159 140 151 146 136 126
283 285 291 301 302 313 293 275 92 355 169 279 277 302 252 219 189 220 227 216 220 244 263 251 243 231 262 265 264 251 246 276 134 282 149 152 79 130 149 153 163 148 151 140
280 281 284 292 292 287 254 301 337 340 331 248 246 242 224 241 192 216 220 208 223 228 235 242 261 207 210 247 254 292 115 78 134 139 115 130 158 141 146 152 134 134 136 131
268 282 284 285 286 280 259 240 203 210 276 264 262 267 291 186 207 213 203 203 206 227 232 237 232 192 188 232 237 254 256 158 160 160 172 163 150 144 149 136 137 157 156 126
270 277 285 270 223 250 245 101 127 102 287 289 281 245 238 170 230 215 192 205 202 209 216 228 229 220 215 216 240 234 214 171 183 163 188 148 163 159 152 158 175 171 156 145
266 265 232 231 205 102 129 178 168 168 195 229 256 284 276 158 267 263 167 248 212 205 218 201 237 222 216 217 227 230 187 176 182 179 186 164 165 162 166 181 185 188 155 146
225 230 231 53 141 171 209 203 190 172 234 217 232 248 262 38 137 282 269 196 214 210 216 219 209 220 220 215 205 217 178 175 183 178 180 173 179 167 174 181 184 177 142 155
316 290 281 209 231 205 218 197 189 192 232 188 224 220 226 157 137 256 296 297 285 216 181 168 237 212 208 214 217 185 177 178 181 175 177 178 184 168 163 171 170 165 146 149
262 239 251 255 235 220 228 198 158 216 205 220 213 221 207 168 122 359 4 217 264 330 181 200 203 211 198 195 191 167 158 182 163 183 174 166 153 149 154 157 165 139 146 148
243 208 245 247 206 224 220 234 210 208 237 221 219 228 192 172 158 141 262 231 289 167 26 227 185 186 153 155 167 148 164 163 172 170 146 143 147 142 149 153 144 152 150 160
237 229 240 230 225 303 290 277 126 251 295 217 324 91 258 166 190 214 226 206 248 268 186 205 127 125 145 159 148 151 158 160 155 147 149 149 140 152 147 147 138 153 159 175
247 241 245 277 293 275 291 221 285 126 229 73 150 218 205 203 226 195 217 235 187 294 8 129 136 130 156 142 144 151 161 157 147 149 151 143 154 152 149 132 153 154 174 178
254 245 247 282 292 262 277 299 8 320 176 204 226 226 207 178 218 231 210 231 269 327 352 345 145 145 144 143 149 149 152 145 142 146 143 149 151 151 139 143 151 158 166 186